Погода в Павлово

Россия / Нижегородская область     55°57′52″N   43°03′52″E
темп.,
°C
ветер,
м/с
пор.,
м/с
влажн.,
%
обл.,
%
осадки,
мм/ч
давл.,
гПа
погр.,
м
2 декабря, чт
чт200:00−3зюз5991100 0.4 993850
03:00−4зюз5991100 1.3 994864
06:00−4з5880100 0.4 996843
09:00−5зюз597987 0.4 999705
12:00−5з6873100 0.0 1002798
15:00−5зюз597393 0.0 1003737
18:00−4юз51073100 0.0 1004659
21:00−4ююз51170100 0.0 1003607
3 декабря, пт
пт300:00−4ююз5129082 0.2 1002623
03:00−3ююз5129498 0.4 1001495
06:000ююз6139382 0.2 1000433
09:00+1юз61397100 0.3 1002737
12:00+2юз6139077 0.0 1003610
15:00+1юз6119194 0.0 1005472
18:00+2ююз51086100 0.0 1006508
21:00+2ю51498100 0.5 1004695
4 декабря, сб
сб400:00+3ю81793100 0.3 1001721
03:00+4ююз81592100 0.9 9991014
06:00+3зюз71197100 3.8 998763
09:000зюз6128699 4.6 1002753
12:00−1зюз613815 0.0 1004840
15:00−1зюз61180100 0.0 1006874
18:00−2зюз6107997 0.1 1008994
21:00−3зюз5108699 0.1 1010824
5 декабря, вс
вс500:00−3з598298 0.1 1011828
03:00−3з5883100 0.2 1013845
06:00−5з588399 0.0 1015691
09:00−5з478099 0.1 1017655
12:00−4зсз4672100 0.0 1019823
15:00−4зсз3572100 0.0 1020732
18:00−5сз247996 0.0 1022471
21:00−6с238495 0.0 1024345
6 декабря, пн
пн600:00−7ссв2378100 0.0 1026311
03:00−7св3376100 0.0 1027367
06:00−8св4574100 0.0 1028377
09:00−8всв4666100 0.0 1029412
12:00−8в566297 0.0 1030446
15:00−8в5864100 0.0 1030418
18:00−8в51066100 0.0 1030387
21:00−7вюв61167100 0.0 1030383